Regional Weather Roundup
Issued by NWS

Home | Current Version | Previous Version | Graphics & Text | Print | Product List | Glossary On
Versions: 1 2 3 4 5 6 7 8 9 10 11 12 13 14 15 16 17 18 19 20 21 22 23 24 25 26 27 28 29 30 31 32 33 34 35 36 37 38 39 40 41 42 43 44 45 46 47 48 49 50
027
ASUS44 KLIX 212310
RWRLA
LOUISIANA WEATHER ROUNDUP
NATIONAL WEATHER SERVICE NEW ORLEANS LA
600 PM CDT SUN SEP 21 2014

NOTE: "FAIR" INDICATES FEW OR NO CLOUDS BELOW 12,000 FEET WITH NO
      SIGNIFICANT WEATHER AND/OR OBSTRUCTIONS TO VISIBILITY.
      SKY/WX - SKY CONDITION AND SIGNIFICANT WEATHER.
      TMP - AIR TEMPERATURE.    DP   - DEWPOINT TEMPERATURE.
      RH  - RELATIVE HUMIDITY.  PRES - PRESSURE.
      HX  - HEAT INDEX.         WCI  - WIND CHILL INDEX.

*  THESE STATIONS ARE NOT NWS OR FAA STATIONS AND ARE NOT UNDER
   NWS QUALITY CONTROL.

LAZ040-048-061>063-065-066-069-220000-
SOUTHEAST LOUISIANA

CITY           SKY/WX    TMP DP  RH WIND       PRES   REMARKS
N.O. AUDUBON     N/A     87  67  51 MISG        N/A
N.O. INTL ARPT MOSUNNY   86  65  49 NE7       29.97S
N.O. LAKEFRONT SUNNY     86  66  51 E3        29.98S
N.O. DOWNTOWN* FAIR      86  64  48 E6        29.98S
SLIDELL        MOSUNNY   87  66  49 W3        29.97S
BATON ROUGE    MOSUNNY   87  66  49 NE7       29.97S
BOOTHVILLE     MOSUNNY   83  73  72 NE9       29.98R
BELLE CHASSE   SUNNY     86  62  44 E8        29.97S
BOGALUSA*      FAIR      88  64  44 NE5       29.99S
GALLIANO*      NOT AVBL
NEW ROADS*     FAIR      87  66  48 N6        29.97S
GONZALES*      FAIR      88  67  50 CALM      29.97S
HAMMOND*       SUNNY     88  61  40 CALM      29.99S
HOUMA*         NOT AVBL
PORT FOURCHON* CLEAR     82  73  74 NE16      30.00R

$$

LAZ041-044-053-054-220000-
SOUTHWEST LOUISIANA

CITY           SKY/WX    TMP DP  RH WIND       PRES   REMARKS
LAKE CHARLES   SUNNY     89  67  47 NE8       29.96F
LAFAYETTE      MOSUNNY   87  69  54 NE3       29.97S
PATTERSON      SUNNY     86  66  51 NE8       30.00S
SALT POINT       N/A     89  67  47 CALM      29.96S
NEW IBERIA     MOSUNNY   89  66  46 NE8       29.98R
CHENAULT AIRPK MOSUNNY   88  68  51 VRB6      29.97

$$

LAZ027-028-220000-
CENTRAL LOUISIANA

CITY           SKY/WX    TMP DP  RH WIND       PRES   REMARKS
FORT POLK      SUNNY     87  68  52 NE3       29.98S
ALEXANDRIA INT SUNNY     88  68  51 E6        29.95S
ALEXANDRIA     PTSUNNY   91  69  48 CALM      29.97F HX  96

$$

LAZ001-002-220000-
NORTHWEST LOUISIANA

CITY           SKY/WX    TMP DP  RH WIND       PRES   REMARKS
SHREVEPORT     MOSUNNY   91  63  39 N5        29.97S
BARKSDALE AFB  MOSUNNY   91  64  41 NE2       29.97F
DTN SHREVEPORT PTSUNNY   91  66  43 CALM      29.97S

$$

LAZ014-016-220000-
NORTHEAST LOUISIANA

CITY           SKY/WX    TMP DP  RH WIND       PRES   REMARKS
MONROE         SUNNY     90  67  46 NW3       29.97S
TALLULAH       SUNNY     86  69  56 VRB3      29.96F

$$




USA.gov is the U.S. government's official web portal to all federal, state and local government web resources and services.